Weather Roundup
Issued by NWS Chicago, IL

Home | Current Version | Previous Version | Graphics & Text | Print | Product List | Glossary On
Versions: 1 2 3 4 5 6 7 8 9 10 11 12 13 14 15 16 17 18 19 20 21 22 23 24 25 26 27 28 29 30 31 32 33 34 35 36 37 38 39 40 41 42 43 44 45 46 47 48 49 50
000
NZUS59 KLOT 260303
HRRLOT

CHICAGO AREA WEATHER ROUNDUP
NATIONAL WEATHER SERVICE CHICAGO/ROMEOVILLE IL
1000 PM CDT MON JUL 25 2016

NOTE: "FAIR" INDICATES FEW OR NO CLOUDS BELOW 12,000 FEET WITH NO
SIGNIFICANT WEATHER AND/OR OBSTRUCTIONS TO VISIBILITY.

* THESE STATIONS ARE NOT UNDER NWS QUALITY CONTROL. THEY ALSO MAY NOT
  REPORT WEATHER SUCH AS PRECIPITATION OR FOG.

ILZ005-006-012>014-019>023-260400-
NORTHEAST ILLINOIS

CITY           SKY/WX    TMP DP  RH WIND       PRES   REMARKS
OHARE          CLOUDY    77  64  64 CALM      30.01R
MIDWAY         CLOUDY    80  61  52 E3        30.01R HX  81
AURORA         CLOUDY    73  70  90 W5        30.02R
LANSING*       MOCLDY    76  63  65 E3        30.01S
WAUKEGAN       CLEAR     69  63  81 CALM      30.01R
DUPAGE AIRPORT CLOUDY    75  64  68 NE6       30.02R
WHEELING       CLOUDY    75  65  70 E3        30.03R
KANKAKEE*      MOCLDY    74  71  93 CALM      30.02S
MORRIS*        PTCLDY    73  70  88 CALM      30.01R
NORTHERLY ISL    N/A     72  66  81 CALM        N/A
$$

WIZ051-052-058>065-066-070>072-260400-
SOUTHEAST WISCONSIN

CITY           SKY/WX    TMP DP  RH WIND       PRES   REMARKS
MILWAUKEE      PTCLDY    76  64  66 CALM      30.01R
KENOSHA*       CLEAR     72  61  68 CALM      30.03R
RACINE*        CLEAR     74  62  66 S3        30.03R
BURLINGTON     CLEAR     69  66  90 CALM      30.03R
WAUKESHA       CLEAR     70  61  73 CALM      30.04R
$$

INZ001>003-010>013-019-020-260400-
NORTHWEST INDIANA

CITY           SKY/WX    TMP DP  RH WIND       PRES   REMARKS
GARY*          MOCLDY    72  72 100 CALM      30.02R
MICHIGAN CITY* NOT AVBL
RENSSELAER*    NOT AVBL
VALPARAISO     MOCLDY    71  66  84 CALM      30.03R
$$

LMZ740>746-260400-
SOUTHERN LAKE MICHIGAN

STATION/POSITION TIME  SKY/WX   TEMP WIND        PRES    VSBY
                                AIR  DIR/SP/G
                 (UTC)          (F)  (DEG/KT/KT) (MB)    (MI)
HARRISON CRIB    0200            76  150/  4/  4   N/A
BURNHAM HARBOR   0300            72     CALM       N/A
CALUMET HARBOR   0200            76  100/  4/  5   N/A
BURNS HARBOR     0200            78   CALM  /  7 1016.3R
MICHIGAN CITY    0200            76   40/  5/  5   N/A
$$

ABBREVIATIONS USED IN REMARKS
   TC - TEMPERATURE IN CELSIUS
  WCI - WIND CHILL INDEX
   HX - HEAT INDEX
  VSB - VISIBILITY
$$



USA.gov is the U.S. government's official web portal to all federal, state and local government web resources and services.